カタログに戻る

STARLINK-33747

運用中通信VLEO
NORAD 63444·PAYLOAD·🇺🇸 United States

打ち上げ Apr 4, 2025 から Vandenberg Space Force Base

Loading…

次のパス (今後24時間)

TLE

最新Source: CelesTrak SupGP

元期: Sep 15, 2026, 03:32 UTC

1 63444C 25069M   26258.14770833  .00058671  00000+0  17334-2 0  2583
2 63444  53.1584 334.8048 0001160  90.3990 115.1396 15.34361961    13

AllMySatでSTARLINK-33747をリアルタイム追跡

Download on the App Store